TimeCDT,TemperatureF,Dew PointF,Humidity,Sea Level PressureIn,VisibilityMPH,Wind Direction,Wind SpeedMPH,Gust SpeedMPH,PrecipitationIn,Events,Conditions,WindDirDegrees,DateUTC
12:54 AM,42.1,39.0,89,29.94,10.0,North,8.1,-,N/A,,Clear,350,2012-09-18 05:54:00
1:54 AM,39.0,37.0,93,29.94,10.0,NW,5.8,-,N/A,,Clear,320,2012-09-18 06:54:00
3:54 AM,37.0,35.1,93,29.95,10.0,NNW,5.8,-,N/A,,Clear,330,2012-09-18 08:54:00
5:54 AM,35.1,33.1,92,29.96,10.0,NW,5.8,-,N/A,,Clear,320,2012-09-18 10:54:00
6:54 AM,35.1,34.0,96,29.96,10.0,NW,5.8,-,N/A,,Clear,310,2012-09-18 11:54:00
7:54 AM,39.0,36.0,89,29.97,10.0,WNW,6.9,-,N/A,,Clear,300,2012-09-18 12:54:00
8:54 AM,44.1,39.9,85,29.97,10.0,NW,6.9,-,N/A,,Clear,310,2012-09-18 13:54:00
9:54 AM,48.9,41.0,74,29.97,10.0,NNW,5.8,-,N/A,,Partly Cloudy,340,2012-09-18 14:54:00
10:54 AM,52.0,37.9,59,29.96,10.0,NW,12.7,-,N/A,,Scattered Clouds,310,2012-09-18 15:54:00
11:54 AM,50.0,36.0,59,29.97,10.0,North,12.7,-,N/A,,Overcast,350,2012-09-18 16:54:00
12:54 PM,52.0,32.0,47,29.96,10.0,NNW,13.8,21.9,N/A,,Mostly Cloudy,340,2012-09-18 17:54:00
1:54 PM,52.0,28.9,41,29.96,10.0,NW,16.1,24.2,N/A,,Mostly Cloudy,310,2012-09-18 18:54:00
2:54 PM,54.0,26.1,34,29.95,10.0,NNW,13.8,27.6,N/A,,Mostly Cloudy,330,2012-09-18 19:54:00
3:54 PM,55.9,21.0,26,29.95,10.0,NW,19.6,26.5,N/A,,Scattered Clouds,310,2012-09-18 20:54:00
4:54 PM,55.0,23.0,29,29.96,10.0,NNW,16.1,20.7,N/A,,Partly Cloudy,340,2012-09-18 21:54:00
5:54 PM,54.0,21.9,29,29.97,10.0,NNW,10.4,-,N/A,,Clear,330,2012-09-18 22:54:00
6:54 PM,48.9,25.0,39,29.98,10.0,NNW,5.8,-,N/A,,Clear,330,2012-09-18 23:54:00
7:54 PM,43.0,28.9,58,30.00,10.0,Calm,Calm,-,N/A,,Clear,0,2012-09-19 00:54:00
8:54 PM,39.0,28.0,65,30.01,10.0,WNW,3.5,-,N/A,,Clear,290,2012-09-19 01:54:00
9:54 PM,37.9,28.0,68,30.01,10.0,Calm,Calm,-,N/A,,Clear,0,2012-09-19 02:54:00
10:54 PM,37.9,28.0,68,30.01,10.0,Calm,Calm,-,N/A,,Clear,0,2012-09-19 03:54:00
11:54 PM,39.0,28.9,67,29.99,10.0,SE,3.5,-,N/A,,Clear,130,2012-09-19 04:54:00